Time,TemperatureF,DewpointF,PressureIn,WindDirection,WindDirectionDegrees,WindSpeedMPH,WindSpeedGustMPH,Humidity,HourlyPrecipIn,Conditions,Clouds,dailyrainin,SoftwareType,DateUTC
2013-08-05 00:01:00,66.7,59.3,30.01,SSW,201,0.0,0.0,77,0.00,,,0.00,Wunderground v.1.15,2013-08-05 04:01:00,
2013-08-05 00:02:00,66.7,59.3,30.01,SSW,201,0.0,0.0,77,0.00,,,0.00,Wunderground v.1.15,2013-08-05 04:02:00,
2013-08-05 00:07:00,66.6,59.5,30.01,SSW,201,0.0,0.0,78,0.00,,,0.00,Wunderground v.1.15,2013-08-05 04:07:00,
2013-08-05 00:13:00,66.4,59.3,30.01,SSW,201,0.0,0.0,78,0.00,,,0.00,Wunderground v.1.15,2013-08-05 04:13:00,
2013-08-05 00:18:00,66.1,59.4,30.02,SSW,201,0.0,0.0,79,0.00,,,0.00,Wunderground v.1.15,2013-08-05 04:18:00,
2013-08-05 00:23:00,65.8,59.1,30.02,SSW,201,0.0,0.0,79,0.00,,,0.00,Wunderground v.1.15,2013-08-05 04:23:00,
2013-08-05 00:28:00,65.7,59.7,30.02,SSW,201,0.0,0.0,81,0.00,,,0.00,Wunderground v.1.15,2013-08-05 04:28:00,
2013-08-05 00:33:00,65.4,59.4,30.02,SSW,201,0.0,0.0,81,0.00,,,0.00,Wunderground v.1.15,2013-08-05 04:33:00,
2013-08-05 00:38:00,65.2,59.2,30.02,SSW,201,0.0,0.0,81,0.00,,,0.00,Wunderground v.1.15,2013-08-05 04:38:00,
2013-08-05 00:43:00,65.1,59.5,30.02,SSW,201,0.0,0.0,82,0.00,,,0.00,Wunderground v.1.15,2013-08-05 04:43:00,
2013-08-05 00:49:00,65.0,59.7,30.02,SSW,201,0.0,0.0,83,0.00,,,0.00,Wunderground v.1.15,2013-08-05 04:49:00,
2013-08-05 00:53:00,64.9,59.6,30.02,SSW,201,0.0,0.0,83,0.00,,,0.00,Wunderground v.1.15,2013-08-05 04:53:00,
2013-08-05 00:58:00,64.8,59.5,30.02,SSW,201,0.0,0.0,83,0.00,,,0.00,Wunderground v.1.15,2013-08-05 04:58:00,
2013-08-05 01:03:00,64.6,59.0,30.02,SSW,201,0.0,0.0,82,0.00,,,0.00,Wunderground v.1.15,2013-08-05 05:03:00,
2013-08-05 01:08:00,64.5,59.2,30.01,SSW,201,0.0,0.0,83,0.00,,,0.00,Wunderground v.1.15,2013-08-05 05:08:00,
2013-08-05 01:13:00,64.4,59.5,30.02,SSW,201,0.0,0.0,84,0.00,,,0.00,Wunderground v.1.15,2013-08-05 05:13:00,
2013-08-05 01:18:00,64.3,59.4,30.02,SSW,201,0.0,0.0,84,0.00,,,0.00,Wunderground v.1.15,2013-08-05 05:18:00,
2013-08-05 01:23:00,64.3,59.4,30.01,SSW,201,0.0,0.0,84,0.00,,,0.00,Wunderground v.1.15,2013-08-05 05:23:00,
2013-08-05 01:28:00,64.1,59.2,30.01,SSW,201,0.0,0.0,84,0.00,,,0.00,Wunderground v.1.15,2013-08-05 05:28:00,
2013-08-05 01:33:00,64.0,59.1,30.01,SSW,201,0.0,0.0,84,0.00,,,0.00,Wunderground v.1.15,2013-08-05 05:33:00,
2013-08-05 01:38:00,63.9,59.3,30.01,SSW,201,0.0,0.0,85,0.00,,,0.00,Wunderground v.1.15,2013-08-05 05:38:00,
2013-08-05 01:43:00,63.8,59.2,30.01,SSW,201,0.0,0.0,85,0.00,,,0.00,Wunderground v.1.15,2013-08-05 05:43:00,
2013-08-05 01:48:00,63.6,59.0,30.01,SSW,201,0.0,0.0,85,0.00,,,0.00,Wunderground v.1.15,2013-08-05 05:48:00,
2013-08-05 01:53:00,63.5,59.2,30.01,SSW,201,0.0,0.0,86,0.00,,,0.00,Wunderground v.1.15,2013-08-05 05:53:00,
2013-08-05 01:58:00,63.3,59.0,30.01,SSW,201,0.0,0.0,86,0.00,,,0.00,Wunderground v.1.15,2013-08-05 05:58:00,
2013-08-05 02:03:00,63.2,58.9,30.01,SSW,201,0.0,0.0,86,0.00,,,0.00,Wunderground v.1.15,2013-08-05 06:03:00,
2013-08-05 02:08:00,63.0,58.7,30.01,SSW,201,0.0,0.0,86,0.00,,,0.00,Wunderground v.1.15,2013-08-05 06:08:00,
2013-08-05 02:13:00,62.9,58.6,30.01,SSW,201,0.0,0.0,86,0.00,,,0.00,Wunderground v.1.15,2013-08-05 06:13:00,
2013-08-05 02:18:00,62.8,58.5,30.01,SSW,201,0.0,0.0,86,0.00,,,0.00,Wunderground v.1.15,2013-08-05 06:18:00,
2013-08-05 02:23:00,62.8,58.9,30.01,SSW,201,0.0,0.0,87,0.00,,,0.00,Wunderground v.1.15,2013-08-05 06:23:00,
2013-08-05 02:28:00,62.7,58.8,30.01,SSW,201,0.0,0.0,87,0.00,,,0.00,Wunderground v.1.15,2013-08-05 06:28:00,
2013-08-05 02:33:00,62.6,58.7,30.01,SSW,201,0.0,0.0,87,0.00,,,0.00,Wunderground v.1.15,2013-08-05 06:33:00,
2013-08-05 02:38:00,62.5,58.6,30.01,SSW,201,0.0,0.0,87,0.00,,,0.00,Wunderground v.1.15,2013-08-05 06:38:00,
2013-08-05 02:43:00,62.4,58.5,30.01,SSW,201,0.0,0.0,87,0.00,,,0.00,Wunderground v.1.15,2013-08-05 06:43:00,
2013-08-05 02:48:00,62.3,58.7,30.00,SSW,201,0.0,0.0,88,0.00,,,0.00,Wunderground v.1.15,2013-08-05 06:48:00,
2013-08-05 02:53:00,62.3,58.7,30.00,SSW,201,0.0,0.0,88,0.00,,,0.00,Wunderground v.1.15,2013-08-05 06:53:00,
2013-08-05 02:58:00,62.2,58.6,30.00,SSW,201,0.0,0.0,88,0.00,,,0.00,Wunderground v.1.15,2013-08-05 06:58:00,
2013-08-05 03:03:00,62.2,58.6,30.00,SSW,201,0.0,0.0,88,0.00,,,0.00,Wunderground v.1.15,2013-08-05 07:03:00,
2013-08-05 03:08:00,62.1,58.5,29.99,SSW,201,0.0,1.0,88,0.00,,,0.00,Wunderground v.1.15,2013-08-05 07:08:00,
2013-08-05 03:13:00,62.0,58.4,30.00,SSW,201,0.0,0.0,88,0.00,,,0.00,Wunderground v.1.15,2013-08-05 07:13:00,
2013-08-05 03:18:00,62.0,58.4,30.00,SSW,201,0.0,0.0,88,0.00,,,0.00,Wunderground v.1.15,2013-08-05 07:18:00,
2013-08-05 03:23:00,62.0,58.7,30.00,SSW,201,0.0,0.0,89,0.00,,,0.00,Wunderground v.1.15,2013-08-05 07:23:00,
2013-08-05 03:28:00,62.0,58.7,30.00,SSW,201,0.0,0.0,89,0.00,,,0.00,Wunderground v.1.15,2013-08-05 07:28:00,
2013-08-05 03:33:00,62.1,58.8,30.00,SSW,201,0.0,0.0,89,0.00,,,0.00,Wunderground v.1.15,2013-08-05 07:33:00,
2013-08-05 03:38:00,62.0,58.7,30.00,SSW,201,0.0,0.0,89,0.00,,,0.00,Wunderground v.1.15,2013-08-05 07:38:00,
2013-08-05 03:43:00,61.9,58.6,29.99,SSW,201,0.0,0.0,89,0.00,,,0.00,Wunderground v.1.15,2013-08-05 07:43:00,
2013-08-05 03:48:00,62.0,59.0,29.99,SSW,201,0.0,0.0,90,0.00,,,0.00,Wunderground v.1.15,2013-08-05 07:48:00,
2013-08-05 03:53:00,61.9,58.9,29.99,SSW,201,0.0,0.0,90,0.00,,,0.00,Wunderground v.1.15,2013-08-05 07:53:00,
2013-08-05 03:58:00,62.0,59.0,29.99,SSW,201,0.0,0.0,90,0.00,,,0.00,Wunderground v.1.15,2013-08-05 07:58:00,
2013-08-05 04:03:00,62.0,59.0,29.99,SSW,201,0.0,0.0,90,0.00,,,0.00,Wunderground v.1.15,2013-08-05 08:03:00,
2013-08-05 04:08:00,62.0,59.0,29.99,SSW,201,0.0,0.0,90,0.00,,,0.00,Wunderground v.1.15,2013-08-05 08:08:00,
2013-08-05 04:13:00,62.0,59.3,30.00,SSW,201,0.0,0.0,91,0.00,,,0.00,Wunderground v.1.15,2013-08-05 08:13:00,
2013-08-05 04:18:00,62.0,59.3,30.00,SSW,201,0.0,0.0,91,0.00,,,0.00,Wunderground v.1.15,2013-08-05 08:18:00,
2013-08-05 04:23:00,62.0,59.3,30.00,SSW,201,0.0,0.0,91,0.00,,,0.00,Wunderground v.1.15,2013-08-05 08:23:00,
2013-08-05 04:28:00,61.9,59.2,30.00,SSW,201,0.0,0.0,91,0.00,,,0.00,Wunderground v.1.15,2013-08-05 08:28:00,
2013-08-05 04:33:00,61.9,59.2,30.00,SSW,201,0.0,0.0,91,0.00,,,0.00,Wunderground v.1.15,2013-08-05 08:33:00,
2013-08-05 04:38:00,61.9,59.2,30.00,SSW,201,0.0,0.0,91,0.00,,,0.00,Wunderground v.1.15,2013-08-05 08:38:00,
2013-08-05 04:43:00,62.0,59.3,30.00,SSW,201,0.0,0.0,91,0.00,,,0.00,Wunderground v.1.15,2013-08-05 08:43:00,
2013-08-05 04:48:00,62.0,59.3,30.00,SSW,201,0.0,0.0,91,0.00,,,0.00,Wunderground v.1.15,2013-08-05 08:48:00,
2013-08-05 04:53:00,62.0,59.3,30.00,SSW,201,0.0,0.0,91,0.00,,,0.00,Wunderground v.1.15,2013-08-05 08:53:00,
2013-08-05 04:59:00,62.0,59.3,30.00,SSW,201,0.0,0.0,91,0.00,,,0.00,Wunderground v.1.15,2013-08-05 08:59:00,
2013-08-05 05:03:00,62.0,59.3,30.00,SSW,201,0.0,0.0,91,0.00,,,0.00,Wunderground v.1.15,2013-08-05 09:03:00,
2013-08-05 05:09:00,62.0,59.3,30.00,SSW,201,0.0,0.0,91,0.00,,,0.00,Wunderground v.1.15,2013-08-05 09:09:00,
2013-08-05 05:14:00,62.1,59.7,30.00,SSW,201,0.0,0.0,92,0.00,,,0.00,Wunderground v.1.15,2013-08-05 09:14:00,
2013-08-05 05:19:00,62.3,59.9,30.00,SSW,201,0.0,0.0,92,0.00,,,0.00,Wunderground v.1.15,2013-08-05 09:19:00,
2013-08-05 05:24:00,62.5,60.1,30.00,SSW,201,0.0,0.0,92,0.00,,,0.00,Wunderground v.1.15,2013-08-05 09:24:00,
2013-08-05 05:29:00,62.7,60.3,30.00,SSW,201,0.0,0.0,92,0.00,,,0.00,Wunderground v.1.15,2013-08-05 09:29:00,
2013-08-05 05:34:00,62.9,60.5,30.00,SSW,201,0.0,0.0,92,0.00,,,0.00,Wunderground v.1.15,2013-08-05 09:34:00,
2013-08-05 05:39:00,63.0,60.9,30.00,SSW,201,0.0,0.0,93,0.00,,,0.00,Wunderground v.1.15,2013-08-05 09:39:00,
2013-08-05 05:45:00,63.1,60.7,30.00,SSW,201,0.0,0.0,92,0.00,,,0.00,Wunderground v.1.15,2013-08-05 09:45:00,
2013-08-05 05:50:00,63.1,60.7,30.00,SSW,201,0.0,0.0,92,0.00,,,0.00,Wunderground v.1.15,2013-08-05 09:50:00,
2013-08-05 05:55:00,63.2,61.1,30.00,SSW,201,0.0,0.0,93,0.00,,,0.00,Wunderground v.1.15,2013-08-05 09:55:00,
2013-08-05 06:01:00,63.3,61.2,30.00,SSW,201,0.0,0.0,93,0.00,,,0.00,Wunderground v.1.15,2013-08-05 10:01:00,
2013-08-05 06:06:00,63.3,60.9,30.00,SSW,201,0.0,0.0,92,0.00,,,0.00,Wunderground v.1.15,2013-08-05 10:06:00,
2013-08-05 06:11:00,63.2,60.8,30.00,SSW,201,0.0,0.0,92,0.00,,,0.00,Wunderground v.1.15,2013-08-05 10:11:00,
2013-08-05 06:16:00,63.1,60.7,30.00,SSW,201,0.0,0.0,92,0.00,,,0.00,Wunderground v.1.15,2013-08-05 10:16:00,
2013-08-05 06:21:00,63.0,60.6,30.00,SSW,201,0.0,0.0,92,0.00,,,0.00,Wunderground v.1.15,2013-08-05 10:21:00,
2013-08-05 06:27:00,62.9,60.5,30.00,SSW,201,0.0,0.0,92,0.00,,,0.00,Wunderground v.1.15,2013-08-05 10:27:00,
2013-08-05 06:32:00,62.9,60.5,30.00,SSW,201,0.0,0.0,92,0.00,,,0.00,Wunderground v.1.15,2013-08-05 10:32:00,
2013-08-05 06:37:00,62.8,60.4,30.00,SSW,201,0.0,0.0,92,0.00,,,0.00,Wunderground v.1.15,2013-08-05 10:37:00,
2013-08-05 06:42:00,62.8,60.7,30.00,SSW,201,0.0,0.0,93,0.00,,,0.00,Wunderground v.1.15,2013-08-05 10:42:00,
2013-08-05 06:47:00,62.7,60.3,30.00,SSW,201,0.0,0.0,92,0.00,,,0.00,Wunderground v.1.15,2013-08-05 10:47:00,
2013-08-05 06:52:00,62.7,60.6,30.00,SSW,201,0.0,0.0,93,0.00,,,0.00,Wunderground v.1.15,2013-08-05 10:52:00,
2013-08-05 06:57:00,62.8,60.7,30.00,SSW,201,0.0,0.0,93,0.00,,,0.00,Wunderground v.1.15,2013-08-05 10:57:00,
2013-08-05 07:02:00,63.0,60.9,30.01,SSW,201,0.0,0.0,93,0.00,,,0.00,Wunderground v.1.15,2013-08-05 11:02:00,
2013-08-05 07:07:00,63.1,61.0,30.01,SSW,201,0.0,0.0,93,0.00,,,0.00,Wunderground v.1.15,2013-08-05 11:07:00,
2013-08-05 07:12:00,63.1,61.0,30.01,SSW,201,0.0,0.0,93,0.00,,,0.00,Wunderground v.1.15,2013-08-05 11:12:00,
2013-08-05 07:17:00,63.1,61.0,30.01,SSW,201,0.0,0.0,93,0.00,,,0.00,Wunderground v.1.15,2013-08-05 11:17:00,
2013-08-05 07:23:00,63.0,60.9,30.01,SSW,201,0.0,0.0,93,0.00,,,0.00,Wunderground v.1.15,2013-08-05 11:23:00,
2013-08-05 07:28:00,63.0,60.9,30.02,SSW,201,0.0,0.0,93,0.00,,,0.00,Wunderground v.1.15,2013-08-05 11:28:00,
2013-08-05 07:33:00,63.1,61.0,30.02,SSW,201,0.0,0.0,93,0.00,,,0.00,Wunderground v.1.15,2013-08-05 11:33:00,
2013-08-05 07:38:00,63.3,61.2,30.02,SSW,201,0.0,0.0,93,0.00,,,0.00,Wunderground v.1.15,2013-08-05 11:38:00,
2013-08-05 07:43:00,63.7,61.6,30.02,SSW,201,0.0,0.0,93,0.00,,,0.00,Wunderground v.1.15,2013-08-05 11:43:00,
2013-08-05 07:48:00,64.1,62.3,30.02,SSW,201,0.0,0.0,94,0.00,,,0.00,Wunderground v.1.15,2013-08-05 11:48:00,
2013-08-05 07:53:00,64.5,62.4,30.02,SSW,201,0.0,0.0,93,0.00,,,0.00,Wunderground v.1.15,2013-08-05 11:53:00,
2013-08-05 07:59:00,64.9,62.5,30.02,SSW,201,0.0,0.0,92,0.00,,,0.00,Wunderground v.1.15,2013-08-05 11:59:00,
2013-08-05 08:04:00,65.3,62.9,30.02,SSW,201,0.0,1.0,92,0.00,,,0.00,Wunderground v.1.15,2013-08-05 12:04:00,
2013-08-05 08:10:00,65.4,62.4,30.02,SSW,201,0.0,1.0,90,0.00,,,0.00,Wunderground v.1.15,2013-08-05 12:10:00,
2013-08-05 08:15:00,65.5,62.5,30.03,SSW,201,0.0,0.0,90,0.00,,,0.00,Wunderground v.1.15,2013-08-05 12:15:00,
2013-08-05 08:19:00,65.7,62.7,30.03,SSW,201,0.0,0.0,90,0.00,,,0.00,Wunderground v.1.15,2013-08-05 12:19:00,
2013-08-05 08:24:00,65.8,62.5,30.03,SSW,201,0.0,0.0,89,0.00,,,0.00,Wunderground v.1.15,2013-08-05 12:24:00,
2013-08-05 08:30:00,66.5,63.2,30.03,SSW,201,0.0,0.0,89,0.00,,,0.00,Wunderground v.1.15,2013-08-05 12:30:00,
2013-08-05 08:35:00,67.2,63.2,30.04,SSW,201,0.0,0.0,87,0.00,,,0.00,Wunderground v.1.15,2013-08-05 12:35:00,
2013-08-05 08:40:00,67.4,62.7,30.04,SSW,201,0.0,0.0,85,0.00,,,0.00,Wunderground v.1.15,2013-08-05 12:40:00,
2013-08-05 08:46:00,67.3,63.0,30.03,SSW,201,0.0,0.0,86,0.00,,,0.00,Wunderground v.1.15,2013-08-05 12:46:00,
2013-08-05 08:51:00,67.7,63.0,30.04,SSW,201,0.0,0.0,85,0.00,,,0.00,Wunderground v.1.15,2013-08-05 12:51:00,
2013-08-05 08:56:00,68.0,62.6,30.04,SSW,201,0.0,0.0,83,0.00,,,0.00,Wunderground v.1.15,2013-08-05 12:56:00,
2013-08-05 09:02:00,68.4,63.0,30.04,SSW,201,0.0,0.0,83,0.00,,,0.00,Wunderground v.1.15,2013-08-05 13:02:00,
2013-08-05 09:07:00,68.9,63.2,30.04,SSW,201,0.0,0.0,82,0.00,,,0.00,Wunderground v.1.15,2013-08-05 13:07:00,
2013-08-05 09:12:00,69.1,63.0,30.04,SSW,201,0.0,1.0,81,0.00,,,0.00,Wunderground v.1.15,2013-08-05 13:12:00,
2013-08-05 09:17:00,69.0,62.9,30.04,SSW,201,0.0,1.0,81,0.00,,,0.00,Wunderground v.1.15,2013-08-05 13:17:00,
2013-08-05 09:22:00,69.2,63.5,30.04,SSW,208,0.0,0.0,82,0.00,,,0.00,Wunderground v.1.15,2013-08-05 13:22:00,
2013-08-05 09:28:00,69.5,63.4,30.03,SW,214,0.0,1.0,81,0.00,,,0.00,Wunderground v.1.15,2013-08-05 13:28:00,
2013-08-05 09:33:00,69.8,63.3,30.04,SSW,213,0.0,1.0,80,0.00,,,0.00,Wunderground v.1.15,2013-08-05 13:33:00,
2013-08-05 09:38:00,70.1,63.3,30.04,WSW,242,0.0,1.0,79,0.00,,,0.00,Wunderground v.1.15,2013-08-05 13:38:00,
2013-08-05 09:44:00,70.2,63.7,30.04,NNW,346,1.0,3.0,80,0.00,,,0.00,Wunderground v.1.15,2013-08-05 13:44:00,
2013-08-05 09:49:00,70.2,63.4,30.04,NNW,346,0.0,3.0,79,0.00,,,0.00,Wunderground v.1.15,2013-08-05 13:49:00,
2013-08-05 09:54:00,70.4,63.6,30.04,NNW,346,0.0,0.0,79,0.00,,,0.00,Wunderground v.1.15,2013-08-05 13:54:00,
2013-08-05 09:59:00,70.9,63.7,30.03,NNW,346,0.0,0.0,78,0.00,,,0.00,Wunderground v.1.15,2013-08-05 13:59:00,
2013-08-05 10:04:00,71.3,64.1,30.03,NNW,346,0.0,0.0,78,0.00,,,0.00,Wunderground v.1.15,2013-08-05 14:04:00,
2013-08-05 10:10:00,71.7,64.8,30.03,NNW,346,0.0,0.0,79,0.00,,,0.00,Wunderground v.1.15,2013-08-05 14:10:00,
2013-08-05 10:15:00,72.2,65.0,30.03,NNW,346,1.0,1.0,78,0.00,,,0.00,Wunderground v.1.15,2013-08-05 14:15:00,
2013-08-05 10:20:00,72.4,64.8,30.03,NNW,346,0.0,0.0,77,0.00,,,0.00,Wunderground v.1.15,2013-08-05 14:20:00,
2013-08-05 10:25:00,72.8,65.5,30.03,NNW,346,0.0,0.0,78,0.00,,,0.00,Wunderground v.1.15,2013-08-05 14:25:00,
2013-08-05 10:30:00,73.1,64.7,30.03,NNW,346,0.0,0.0,75,0.00,,,0.00,Wunderground v.1.15,2013-08-05 14:30:00,
2013-08-05 10:35:00,73.3,65.3,30.03,NNW,346,0.0,0.0,76,0.00,,,0.00,Wunderground v.1.15,2013-08-05 14:35:00,
2013-08-05 10:41:00,73.7,66.0,30.03,NNE,32,0.0,0.0,77,0.00,,,0.00,Wunderground v.1.15,2013-08-05 14:41:00,
2013-08-05 10:46:00,73.9,65.5,30.03,NNE,18,0.0,2.0,75,0.00,,,0.00,Wunderground v.1.15,2013-08-05 14:46:00,
2013-08-05 10:51:00,74.1,65.3,30.03,NNE,17,0.0,0.0,74,0.00,,,0.00,Wunderground v.1.15,2013-08-05 14:51:00,
2013-08-05 10:57:00,74.5,65.7,30.03,NNE,17,0.0,1.0,74,0.00,,,0.00,Wunderground v.1.15,2013-08-05 14:57:00,
2013-08-05 11:02:00,74.8,66.3,30.03,NNE,15,0.0,0.0,75,0.00,,,0.00,Wunderground v.1.15,2013-08-05 15:02:00,
2013-08-05 11:07:00,75.1,65.9,30.03,NNE,13,0.0,1.0,73,0.00,,,0.00,Wunderground v.1.15,2013-08-05 15:07:00,
2013-08-05 11:12:00,75.3,66.4,30.02,North,5,0.0,1.0,74,0.00,,,0.00,Wunderground v.1.15,2013-08-05 15:12:00,
2013-08-05 11:18:00,75.5,67.0,30.02,North,5,0.0,1.0,75,0.00,,,0.00,Wunderground v.1.15,2013-08-05 15:18:00,
2013-08-05 11:23:00,75.6,67.1,30.02,North,355,0.0,1.0,75,0.00,,,0.00,Wunderground v.1.15,2013-08-05 15:23:00,
2013-08-05 11:28:00,75.5,67.0,30.03,North,355,0.0,1.0,75,0.00,,,0.00,Wunderground v.1.15,2013-08-05 15:28:00,
2013-08-05 11:34:00,75.7,66.4,30.03,North,355,0.0,1.0,73,0.00,,,0.00,Wunderground v.1.15,2013-08-05 15:34:00,
2013-08-05 11:40:00,76.2,67.3,30.02,North,355,0.0,0.0,74,0.00,,,0.00,Wunderground v.1.15,2013-08-05 15:40:00,
2013-08-05 11:45:00,76.5,67.6,30.02,North,355,0.0,0.0,74,0.00,,,0.00,Wunderground v.1.15,2013-08-05 15:45:00,
2013-08-05 11:50:00,76.8,67.1,30.02,North,355,0.0,0.0,72,0.00,,,0.00,Wunderground v.1.15,2013-08-05 15:50:00,
2013-08-05 11:56:00,77.0,67.3,30.02,North,355,0.0,1.0,72,0.00,,,0.00,Wunderground v.1.15,2013-08-05 15:56:00,
2013-08-05 12:01:00,76.5,66.4,30.02,North,355,0.0,0.0,71,0.00,,,0.00,Wunderground v.1.15,2013-08-05 16:01:00,
2013-08-05 12:06:00,76.2,66.1,30.01,North,360,0.0,1.0,71,0.00,,,0.00,Wunderground v.1.15,2013-08-05 16:06:00,
2013-08-05 12:12:00,76.5,67.6,30.01,North,360,2.0,2.0,74,0.00,,,0.00,Wunderground v.1.15,2013-08-05 16:12:00,
2013-08-05 12:17:00,76.7,67.0,30.01,NNE,18,3.0,5.0,72,0.00,,,0.00,Wunderground v.1.15,2013-08-05 16:17:00,
2013-08-05 12:22:00,76.7,66.6,30.01,NNE,25,2.0,2.0,71,0.00,,,0.00,Wunderground v.1.15,2013-08-05 16:22:00,
2013-08-05 12:27:00,76.7,67.0,30.01,NNE,25,4.0,4.0,72,0.00,,,0.00,Wunderground v.1.15,2013-08-05 16:27:00,
2013-08-05 12:32:00,77.1,67.0,30.01,NNE,27,0.0,3.0,71,0.00,,,0.00,Wunderground v.1.15,2013-08-05 16:32:00,
2013-08-05 12:37:00,77.5,67.8,30.00,NNE,29,0.0,4.0,72,0.00,,,0.00,Wunderground v.1.15,2013-08-05 16:37:00,
2013-08-05 12:42:00,78.2,68.0,30.00,NNE,29,0.0,1.0,71,0.00,,,0.00,Wunderground v.1.15,2013-08-05 16:42:00,
2013-08-05 12:47:00,78.8,68.2,30.00,NNE,29,3.0,4.0,70,0.00,,,0.00,Wunderground v.1.15,2013-08-05 16:47:00,
2013-08-05 12:52:00,78.7,66.8,30.00,ENE,76,5.0,5.0,67,0.00,,,0.00,Wunderground v.1.15,2013-08-05 16:52:00,
2013-08-05 12:57:00,77.9,66.5,30.00,ENE,76,0.0,5.0,68,0.00,,,0.00,Wunderground v.1.15,2013-08-05 16:57:00,
2013-08-05 13:02:00,77.3,66.7,29.99,ENE,76,0.0,1.0,70,0.00,,,0.00,Wunderground v.1.15,2013-08-05 17:02:00,
2013-08-05 13:08:00,77.5,67.8,29.99,NE,50,2.0,5.0,72,0.00,,,0.00,Wunderground v.1.15,2013-08-05 17:08:00,
2013-08-05 13:13:00,77.9,66.5,29.99,NE,54,0.0,1.0,68,0.00,,,0.00,Wunderground v.1.15,2013-08-05 17:13:00,
2013-08-05 13:18:00,78.0,67.0,29.99,NE,54,0.0,1.0,69,0.00,,,0.00,Wunderground v.1.15,2013-08-05 17:18:00,
2013-08-05 13:23:00,78.0,66.6,29.99,NE,46,0.0,1.0,68,0.00,,,0.00,Wunderground v.1.15,2013-08-05 17:23:00,
2013-08-05 13:28:00,78.2,67.6,29.99,NE,46,0.0,1.0,70,0.00,,,0.00,Wunderground v.1.15,2013-08-05 17:28:00,
2013-08-05 13:33:00,78.7,67.2,29.99,NE,46,0.0,1.0,68,0.00,,,0.00,Wunderground v.1.15,2013-08-05 17:33:00,
2013-08-05 13:39:00,79.4,66.2,29.99,SE,132,0.0,5.0,64,0.00,,,0.00,Wunderground v.1.15,2013-08-05 17:39:00,
2013-08-05 13:44:00,79.7,67.3,29.98,ENE,71,0.0,4.0,66,0.00,,,0.00,Wunderground v.1.15,2013-08-05 17:44:00,
2013-08-05 13:49:00,80.3,69.2,29.98,SE,145,0.0,5.0,69,0.00,,,0.00,Wunderground v.1.15,2013-08-05 17:49:00,
2013-08-05 13:55:00,81.3,67.0,29.98,SE,138,0.0,1.0,62,0.00,,,0.00,Wunderground v.1.15,2013-08-05 17:55:00,
2013-08-05 14:00:00,82.2,67.4,29.98,SE,139,0.0,1.0,61,0.00,,,0.00,Wunderground v.1.15,2013-08-05 18:00:00,
2013-08-05 14:05:00,82.7,63.8,29.98,SW,234,2.0,3.0,53,0.00,,,0.00,Wunderground v.1.15,2013-08-05 18:05:00,
2013-08-05 14:10:00,83.2,63.2,29.98,WNW,294,0.0,1.0,51,0.00,,,0.00,Wunderground v.1.15,2013-08-05 18:10:00,
2013-08-05 14:15:00,83.3,64.4,29.98,West,271,0.0,3.0,53,0.00,,,0.00,Wunderground v.1.15,2013-08-05 18:15:00,
2013-08-05 14:20:00,83.4,63.9,29.99,North,350,5.0,5.0,52,0.00,,,0.00,Wunderground v.1.15,2013-08-05 18:20:00,
2013-08-05 14:26:00,83.2,62.6,29.98,NNW,329,0.0,5.0,50,0.00,,,0.00,Wunderground v.1.15,2013-08-05 18:26:00,
2013-08-05 14:31:00,82.9,64.0,29.98,NNW,328,0.0,1.0,53,0.00,,,0.00,Wunderground v.1.15,2013-08-05 18:31:00,
2013-08-05 14:36:00,82.9,65.1,29.98,NNW,334,3.0,5.0,55,0.00,,,0.00,Wunderground v.1.15,2013-08-05 18:36:00,
2013-08-05 14:41:00,82.8,62.8,29.98,NNE,20,4.0,7.0,51,0.00,,,0.00,Wunderground v.1.15,2013-08-05 18:41:00,
2013-08-05 14:46:00,82.6,62.6,29.98,NNW,346,5.0,8.0,51,0.00,,,0.00,Wunderground v.1.15,2013-08-05 18:46:00,
2013-08-05 14:52:00,82.8,61.7,29.98,North,355,0.0,6.0,49,0.00,,,0.00,Wunderground v.1.15,2013-08-05 18:52:00,
2013-08-05 14:57:00,82.6,61.5,29.98,North,355,5.0,8.0,49,0.00,,,0.00,Wunderground v.1.15,2013-08-05 18:57:00,
2013-08-05 15:02:00,82.4,61.9,29.97,NNW,331,2.0,3.0,50,0.00,,,0.00,Wunderground v.1.15,2013-08-05 19:02:00,
2013-08-05 15:07:00,82.8,64.5,29.97,North,5,1.0,4.0,54,0.00,,,0.00,Wunderground v.1.15,2013-08-05 19:07:00,
2013-08-05 15:12:00,83.7,63.1,29.97,NW,308,3.0,3.0,50,0.00,,,0.00,Wunderground v.1.15,2013-08-05 19:12:00,
2013-08-05 15:17:00,84.2,63.0,29.97,NNE,21,5.0,5.0,49,0.00,,,0.00,Wunderground v.1.15,2013-08-05 19:17:00,
2013-08-05 15:22:00,83.4,63.4,29.97,WSW,247,5.0,5.0,51,0.00,,,0.00,Wunderground v.1.15,2013-08-05 19:22:00,
2013-08-05 15:27:00,83.1,64.7,29.97,North,5,2.0,5.0,54,0.00,,,0.00,Wunderground v.1.15,2013-08-05 19:27:00,
2013-08-05 15:32:00,83.1,64.2,29.97,SE,129,1.0,4.0,53,0.00,,,0.00,Wunderground v.1.15,2013-08-05 19:32:00,
2013-08-05 15:37:00,83.2,65.4,29.97,West,273,0.0,4.0,55,0.00,,,0.00,Wunderground v.1.15,2013-08-05 19:37:00,
2013-08-05 15:42:00,83.1,65.3,29.97,WNW,284,0.0,3.0,55,0.00,,,0.00,Wunderground v.1.15,2013-08-05 19:42:00,
2013-08-05 15:47:00,83.1,65.3,29.97,WNW,286,0.0,3.0,55,0.00,,,0.00,Wunderground v.1.15,2013-08-05 19:47:00,
2013-08-05 15:53:00,83.1,62.5,29.97,North,360,1.0,4.0,50,0.00,,,0.00,Wunderground v.1.15,2013-08-05 19:53:00,
2013-08-05 15:58:00,82.9,63.5,29.97,NW,319,1.0,4.0,52,0.00,,,0.00,Wunderground v.1.15,2013-08-05 19:58:00,
2013-08-05 16:03:00,83.5,65.6,29.97,NNW,339,0.0,3.0,55,0.00,,,0.00,Wunderground v.1.15,2013-08-05 20:03:00,
2013-08-05 16:09:00,84.0,63.9,29.97,NNW,342,5.0,5.0,51,0.00,,,0.00,Wunderground v.1.15,2013-08-05 20:09:00,
2013-08-05 16:14:00,83.6,62.4,29.96,NW,304,0.0,3.0,49,0.00,,,0.00,Wunderground v.1.15,2013-08-05 20:14:00,
2013-08-05 16:19:00,83.8,66.4,29.96,WNW,300,1.0,3.0,56,0.00,,,0.00,Wunderground v.1.15,2013-08-05 20:19:00,
2013-08-05 16:25:00,83.9,64.9,29.96,West,264,1.0,3.0,53,0.00,,,0.00,Wunderground v.1.15,2013-08-05 20:25:00,
2013-08-05 16:30:00,83.6,64.7,29.96,NNW,340,0.0,2.0,53,0.00,,,0.00,Wunderground v.1.15,2013-08-05 20:30:00,
2013-08-05 16:35:00,82.8,66.5,29.96,WSW,240,0.0,7.0,58,0.00,,,0.00,Wunderground v.1.15,2013-08-05 20:35:00,
2013-08-05 16:41:00,82.3,64.5,29.96,NNE,26,0.0,1.0,55,0.00,,,0.00,Wunderground v.1.15,2013-08-05 20:41:00,
2013-08-05 16:46:00,81.8,66.1,29.96,WSW,254,1.0,3.0,59,0.00,,,0.00,Wunderground v.1.15,2013-08-05 20:46:00,
2013-08-05 16:52:00,81.0,67.2,29.96,WSW,246,0.0,2.0,63,0.00,,,0.00,Wunderground v.1.15,2013-08-05 20:52:00,
2013-08-05 16:57:00,80.3,65.6,29.95,WSW,246,0.0,2.0,61,0.00,,,0.00,Wunderground v.1.15,2013-08-05 20:57:00,
2013-08-05 17:02:00,79.8,64.7,29.95,WSW,242,0.0,2.0,60,0.00,,,0.00,Wunderground v.1.15,2013-08-05 21:02:00,
2013-08-05 17:07:00,79.7,66.4,29.95,WSW,241,0.0,2.0,64,0.00,,,0.00,Wunderground v.1.15,2013-08-05 21:07:00,
2013-08-05 17:12:00,79.7,65.1,29.96,SW,236,0.0,1.0,61,0.00,,,0.00,Wunderground v.1.15,2013-08-05 21:12:00,
2013-08-05 17:18:00,79.7,65.1,29.96,SW,236,0.0,1.0,61,0.00,,,0.00,Wunderground v.1.15,2013-08-05 21:18:00,
2013-08-05 17:23:00,79.6,64.5,29.96,SW,236,0.0,0.0,60,0.00,,,0.00,Wunderground v.1.15,2013-08-05 21:23:00,
2013-08-05 17:28:00,79.6,65.0,29.96,WSW,238,0.0,4.0,61,0.00,,,0.00,Wunderground v.1.15,2013-08-05 21:28:00,
2013-08-05 17:33:00,79.5,65.3,29.96,WSW,239,0.0,0.0,62,0.00,,,0.00,Wunderground v.1.15,2013-08-05 21:33:00,
2013-08-05 17:39:00,79.5,66.3,29.96,WSW,239,0.0,0.0,64,0.00,,,0.00,Wunderground v.1.15,2013-08-05 21:39:00,
2013-08-05 17:44:00,79.3,66.1,29.96,WSW,239,0.0,0.0,64,0.00,,,0.00,Wunderground v.1.15,2013-08-05 21:44:00,
2013-08-05 17:50:00,78.8,66.0,29.96,WSW,239,0.0,0.0,65,0.00,,,0.00,Wunderground v.1.15,2013-08-05 21:50:00,
2013-08-05 17:55:00,78.7,66.4,29.96,WSW,239,0.0,1.0,66,0.00,,,0.00,Wunderground v.1.15,2013-08-05 21:55:00,
2013-08-05 18:00:00,78.5,66.6,29.96,WSW,239,0.0,1.0,67,0.00,,,0.00,Wunderground v.1.15,2013-08-05 22:00:00,
2013-08-05 18:05:00,78.5,66.6,29.96,WSW,239,0.0,1.0,67,0.00,,,0.00,Wunderground v.1.15,2013-08-05 22:05:00,
2013-08-05 18:10:00,78.6,67.6,29.96,WSW,239,0.0,0.0,69,0.00,,,0.00,Wunderground v.1.15,2013-08-05 22:10:00,
2013-08-05 18:15:00,78.6,67.6,29.96,WSW,239,0.0,0.0,69,0.00,,,0.00,Wunderground v.1.15,2013-08-05 22:15:00,
2013-08-05 18:20:00,78.5,66.6,29.96,WSW,239,0.0,0.0,67,0.00,,,0.00,Wunderground v.1.15,2013-08-05 22:20:00,
2013-08-05 18:25:00,78.6,67.6,29.96,WSW,239,0.0,1.0,69,0.00,,,0.00,Wunderground v.1.15,2013-08-05 22:25:00,
2013-08-05 18:31:00,78.5,67.1,29.96,WSW,239,0.0,0.0,68,0.00,,,0.00,Wunderground v.1.15,2013-08-05 22:31:00,
2013-08-05 18:36:00,78.5,67.9,29.95,WSW,239,0.0,0.0,70,0.00,,,0.00,Wunderground v.1.15,2013-08-05 22:36:00,
2013-08-05 18:41:00,78.3,67.7,29.96,WSW,239,0.0,0.0,70,0.00,,,0.00,Wunderground v.1.15,2013-08-05 22:41:00,
2013-08-05 18:46:00,78.1,67.1,29.96,WSW,239,0.0,2.0,69,0.00,,,0.00,Wunderground v.1.15,2013-08-05 22:46:00,
2013-08-05 18:51:00,78.0,67.4,29.96,WSW,239,0.0,0.0,70,0.00,,,0.00,Wunderground v.1.15,2013-08-05 22:51:00,
2013-08-05 18:56:00,78.1,67.1,29.95,WSW,239,0.0,0.0,69,0.00,,,0.00,Wunderground v.1.15,2013-08-05 22:56:00,
2013-08-05 19:01:00,78.3,67.7,29.95,WSW,239,0.0,3.0,70,0.00,,,0.00,Wunderground v.1.15,2013-08-05 23:01:00,
2013-08-05 19:06:00,78.3,67.3,29.95,SW,234,0.0,3.0,69,0.00,,,0.00,Wunderground v.1.15,2013-08-05 23:06:00,
2013-08-05 19:12:00,78.0,67.0,29.95,SW,234,0.0,0.0,69,0.00,,,0.00,Wunderground v.1.15,2013-08-05 23:12:00,
2013-08-05 19:17:00,77.7,66.3,29.95,SW,233,0.0,1.0,68,0.00,,,0.00,Wunderground v.1.15,2013-08-05 23:17:00,
2013-08-05 19:23:00,77.4,66.4,29.96,SW,233,0.0,0.0,69,0.00,,,0.00,Wunderground v.1.15,2013-08-05 23:23:00,
2013-08-05 19:28:00,77.1,66.1,29.96,SW,232,0.0,0.0,69,0.00,,,0.00,Wunderground v.1.15,2013-08-05 23:28:00,
2013-08-05 19:33:00,76.8,66.3,29.96,SW,227,0.0,0.0,70,0.00,,,0.00,Wunderground v.1.15,2013-08-05 23:33:00,
2013-08-05 19:38:00,76.4,65.9,29.96,SW,224,0.0,3.0,70,0.00,,,0.00,Wunderground v.1.15,2013-08-05 23:38:00,
2013-08-05 19:43:00,76.1,65.6,29.96,SW,220,0.0,1.0,70,0.00,,,0.00,Wunderground v.1.15,2013-08-05 23:43:00,
2013-08-05 19:49:00,75.7,64.8,29.96,SW,220,0.0,1.0,69,0.00,,,0.00,Wunderground v.1.15,2013-08-05 23:49:00,
2013-08-05 19:54:00,75.3,65.2,29.96,SW,220,0.0,1.0,71,0.00,,,0.00,Wunderground v.1.15,2013-08-05 23:54:00,
2013-08-05 19:59:00,74.9,64.9,29.96,WSW,240,0.0,4.0,71,0.00,,,0.00,Wunderground v.1.15,2013-08-05 23:59:00,
2013-08-05 20:05:00,74.6,64.2,29.96,WSW,245,0.0,1.0,70,0.00,,,0.00,Wunderground v.1.15,2013-08-06 00:05:00,
2013-08-05 20:10:00,74.4,64.0,29.96,WSW,243,1.0,1.0,70,0.00,,,0.00,Wunderground v.1.15,2013-08-06 00:10:00,
2013-08-05 20:16:00,74.3,63.9,29.96,WSW,243,0.0,1.0,70,0.00,,,0.00,Wunderground v.1.15,2013-08-06 00:16:00,
2013-08-05 20:21:00,74.1,63.7,29.97,SW,216,0.0,0.0,70,0.00,,,0.00,Wunderground v.1.15,2013-08-06 00:21:00,
2013-08-05 20:26:00,73.9,63.5,29.96,SSW,196,0.0,3.0,70,0.00,,,0.00,Wunderground v.1.15,2013-08-06 00:26:00,
2013-08-05 20:31:00,73.7,63.3,29.96,SSW,192,0.0,0.0,70,0.00,,,0.00,Wunderground v.1.15,2013-08-06 00:31:00,
2013-08-05 20:36:00,73.5,63.1,29.97,South,190,0.0,1.0,70,0.00,,,0.00,Wunderground v.1.15,2013-08-06 00:36:00,
2013-08-05 20:41:00,73.3,63.3,29.97,South,191,0.0,1.0,71,0.00,,,0.00,Wunderground v.1.15,2013-08-06 00:41:00,
2013-08-05 20:46:00,73.1,62.7,29.97,SSW,196,0.0,1.0,70,0.00,,,0.00,Wunderground v.1.15,2013-08-06 00:46:00,
2013-08-05 20:51:00,72.9,62.9,29.97,SSW,196,0.0,0.0,71,0.00,,,0.00,Wunderground v.1.15,2013-08-06 00:51:00,
2013-08-05 20:56:00,72.7,62.3,29.97,SSW,195,0.0,1.0,70,0.00,,,0.00,Wunderground v.1.15,2013-08-06 00:56:00,
2013-08-05 21:02:00,72.5,62.2,29.97,SSW,194,0.0,0.0,70,0.00,,,0.00,Wunderground v.1.15,2013-08-06 01:02:00,
2013-08-05 21:07:00,72.3,61.1,29.97,SSW,194,0.0,0.0,68,0.00,,,0.00,Wunderground v.1.15,2013-08-06 01:07:00,
2013-08-05 21:12:00,72.1,61.0,29.97,SSW,194,0.0,0.0,68,0.00,,,0.00,Wunderground v.1.15,2013-08-06 01:12:00,
2013-08-05 21:18:00,72.0,60.9,29.97,SSW,195,0.0,1.0,68,0.00,,,0.00,Wunderground v.1.15,2013-08-06 01:18:00,
2013-08-05 21:23:00,71.9,60.8,29.98,SSW,202,1.0,1.0,68,0.00,,,0.00,Wunderground v.1.15,2013-08-06 01:23:00,
2013-08-05 21:28:00,71.8,60.7,29.98,SSW,193,0.0,1.0,68,0.00,,,0.00,Wunderground v.1.15,2013-08-06 01:28:00,
2013-08-05 21:33:00,71.7,61.0,29.98,SSW,193,0.0,0.0,69,0.00,,,0.00,Wunderground v.1.15,2013-08-06 01:33:00,
2013-08-05 21:39:00,71.6,60.5,29.98,SSW,192,0.0,1.0,68,0.00,,,0.00,Wunderground v.1.15,2013-08-06 01:39:00,
2013-08-05 21:44:00,71.5,60.4,29.98,SSW,192,0.0,0.0,68,0.00,,,0.00,Wunderground v.1.15,2013-08-06 01:44:00,
2013-08-05 21:49:00,71.3,60.6,29.97,SSW,192,0.0,0.0,69,0.00,,,0.00,Wunderground v.1.15,2013-08-06 01:49:00,
2013-08-05 21:54:00,71.2,60.9,29.97,SSW,192,0.0,0.0,70,0.00,,,0.00,Wunderground v.1.15,2013-08-06 01:54:00,
2013-08-05 21:59:00,70.9,60.6,29.97,SSW,192,0.0,0.0,70,0.00,,,0.00,Wunderground v.1.15,2013-08-06 01:59:00,
2013-08-05 22:05:00,70.7,60.4,29.97,SSW,192,0.0,0.0,70,0.00,,,0.00,Wunderground v.1.15,2013-08-06 02:05:00,
2013-08-05 22:10:00,70.6,60.7,29.97,SSW,192,0.0,0.0,71,0.00,,,0.00,Wunderground v.1.15,2013-08-06 02:10:00,
2013-08-05 22:15:00,70.4,60.1,29.97,SSW,192,0.0,0.0,70,0.00,,,0.00,Wunderground v.1.15,2013-08-06 02:15:00,
2013-08-05 22:20:00,70.2,59.1,29.97,SSW,192,0.0,0.0,68,0.00,,,0.00,Wunderground v.1.15,2013-08-06 02:20:00,
2013-08-05 22:25:00,70.1,59.5,29.97,SSW,192,0.0,0.0,69,0.00,,,0.00,Wunderground v.1.15,2013-08-06 02:25:00,
2013-08-05 22:31:00,70.1,59.9,29.97,SSW,192,0.0,0.0,70,0.00,,,0.00,Wunderground v.1.15,2013-08-06 02:31:00,
2013-08-05 22:36:00,69.9,59.7,29.97,SSW,192,0.0,0.0,70,0.00,,,0.00,Wunderground v.1.15,2013-08-06 02:36:00,
2013-08-05 22:41:00,69.7,59.1,29.97,SSW,192,0.0,0.0,69,0.00,,,0.00,Wunderground v.1.15,2013-08-06 02:41:00,
2013-08-05 22:46:00,69.4,59.2,29.97,SSW,192,0.0,0.0,70,0.00,,,0.00,Wunderground v.1.15,2013-08-06 02:46:00,
2013-08-05 22:51:00,69.2,59.0,29.97,SSW,192,0.0,0.0,70,0.00,,,0.00,Wunderground v.1.15,2013-08-06 02:51:00,
2013-08-05 22:56:00,69.1,59.3,29.98,SSW,192,0.0,0.0,71,0.00,,,0.00,Wunderground v.1.15,2013-08-06 02:56:00,
2013-08-05 23:01:00,68.9,58.7,29.98,SSW,192,0.0,0.0,70,0.00,,,0.00,Wunderground v.1.15,2013-08-06 03:01:00,
2013-08-05 23:06:00,68.8,58.2,29.98,SSW,192,0.0,0.0,69,0.00,,,0.00,Wunderground v.1.15,2013-08-06 03:06:00,
2013-08-05 23:11:00,68.7,58.9,29.98,SSW,192,0.0,0.0,71,0.00,,,0.00,Wunderground v.1.15,2013-08-06 03:11:00,
2013-08-05 23:16:00,68.7,59.7,29.98,SSW,192,0.0,0.0,73,0.00,,,0.00,Wunderground v.1.15,2013-08-06 03:16:00,
2013-08-05 23:21:00,68.6,59.6,29.98,SSW,192,0.0,0.0,73,0.00,,,0.00,Wunderground v.1.15,2013-08-06 03:21:00,
2013-08-05 23:26:00,68.4,59.4,29.97,SSW,192,0.0,0.0,73,0.00,,,0.00,Wunderground v.1.15,2013-08-06 03:26:00,
2013-08-05 23:32:00,68.3,59.7,29.97,SSW,192,0.0,0.0,74,0.00,,,0.00,Wunderground v.1.15,2013-08-06 03:32:00,
2013-08-05 23:37:00,68.2,60.3,29.98,SSW,192,0.0,0.0,76,0.00,,,0.00,Wunderground v.1.15,2013-08-06 03:37:00,
2013-08-05 23:41:00,68.0,59.8,29.98,SSW,192,0.0,0.0,75,0.00,,,0.00,Wunderground v.1.15,2013-08-06 03:41:00,
2013-08-05 23:46:00,67.9,60.1,29.98,SSW,192,0.0,0.0,76,0.00,,,0.00,Wunderground v.1.15,2013-08-06 03:46:00,
2013-08-05 23:51:00,67.9,60.4,29.98,SSW,192,0.0,0.0,77,0.00,,,0.00,Wunderground v.1.15,2013-08-06 03:51:00,
2013-08-05 23:56:00,67.9,60.4,29.97,SSW,192,0.0,0.0,77,0.00,,,0.00,Wunderground v.1.15,2013-08-06 03:56:00,